Vertical_Velocity
-1 1 5 -1 2 0 -0 0 3 -1 -3 -0 2 -1 -3 -3 -2 -2 -3 -1 2 2
5 6 5 -2 -4 -2 -2 -2 -0 2 -4 -2 -1 -5 0 1 1 6 1 1 3 2
3 4 2 2 1 3 -1 1 -3 -2 1 -1 4 7 1 8 8 2 26 10 -0 3
1 1 3 1 -2 -2 3 1 -5 0 6 2 18 -2 5 1 9 3 -0 4 9 3
7 2 0 2 1 -8 -10 -8 8 22 12 24 10 12 -2 0 -6 8 13 1 16 2
6 -5 22 23 11 20 23 17 7 7 6 3 -1 -2 -0 1 -1 -4 -2 -3 -6 -1
9 6 5 1 5 6 0 3 -1 -2 -1 -2 1 -1 -0 0 -1 -1 -2 -2 -4 -2
-9 -3 -5 0 3 4 -7 -9 -5 -6 -8 -3 -4 -4 -4 0 -2 -2 -2 -0 -0 -0
4 6 5 3 5 3 -0 -3 -1 -2 -0 1 1 1 1 1 1 1 2 2 0 -1
3 1 -0 0 1 -1 -2 1 -0 -1 -0 -2 -1 -1 -1 -1 -1 -1 -1 -0 0 2
1 0 1 1 1 1 2 2 1 1 0 1 1 -1 -1 1 1 -0 -1 -1 -2 -1
3 3 2 0 2 1 1 1 -2 -1 -2 -3 -3 -3 -1 1 2 2 3 2 2 3
0 -0 -0 -0 1 -1 -2 -1 3 2 2 2 1 2 1 2 0 -2 -1 -1 0 4
2 2 2 1 1 1 1 0 -3 -3 -5 -5 -2 -4 -2 -3 -1 -3 -2 -3 -2 -2
Height
3016 3025 3031 3036 3041 3047 3051 3055 3059 3061 3062 3063 3064 3064 3064 3065 3065 3064 3064 3064 3065 3067
3014 3020 3025 3030 3035 3039 3043 3046 3050 3052 3053 3054 3053 3053 3053 3053 3054 3054 3053 3054 3056 3056
3009 3014 3019 3024 3027 3031 3034 3038 3040 3041 3042 3044 3044 3042 3044 3044 3044 3044 3043 3046 3048 3048
3006 3011 3015 3018 3021 3023 3026 3028 3029 3030 3030 3034 3034 3037 3036 3035 3036 3037 3038 3038 3038 3040
3004 3007 3009 3012 3016 3015 3016 3019 3021 3024 3024 3027 3028 3026 3029 3029 3029 3028 3028 3030 3030 3031
3004 3005 3003 3006 3012 3009 3011 3014 3016 3018 3019 3019 3020 3021 3022 3022 3022 3021 3021 3021 3022 3022
2999 3001 3002 3003 3006 3007 3008 3009 3011 3012 3013 3013 3015 3016 3016 3016 3015 3015 3014 3014 3014 3013
3000 3002 3003 3007 3008 3008 3007 3007 3010 3010 3010 3010 3010 3010 3009 3009 3008 3008 3007 3006 3006 3005
3007 3007 3006 3007 3008 3006 3005 3005 3005 3006 3005 3005 3004 3004 3003 3002 3001 3000 2999 2998 2997 2995
3006 3005 3004 3003 3003 3003 3003 3002 3001 3000 2999 2998 2997 2995 2993 2992 2991 2989 2987 2986 2984 2982
3005 3004 3002 3002 3000 2998 2997 2996 2994 2993 2991 2988 2987 2985 2982 2980 2978 2976 2973 2971 2969 2966
3001 2999 2997 2996 2994 2993 2991 2989 2987 2985 2983 2980 2977 2974 2969 2967 2964 2962 2959 2956 2952 2949
2997 2995 2993 2991 2989 2987 2985 2982 2979 2975 2971 2968 2965 2961 2957 2954 2951 2946 2943 2939 2935 2933
2991 2988 2985 2982 2979 2977 2974 2971 2969 2966 2964 2961 2958 2953 2949 2945 2941 2936 2932 2927 2922 2917